When you browse on this site, cookies collect data to enhance your experience and personalize the content and advertising you see.
Visit our Privacy Policy to learn more. By continuing to use the site, you agree to this use of cookies and data.
  • In Hungary
  • List of Countries
  • For 7 days
  • Water Temperature
  • Weather Map
  • News
  • Weather Widgets
  • user-avatar
    Login

    Hourly Weather Bełchatów

    Today, 9 December, Monday

    Time Temperature Precipitation Wind Pressure Humidity
    00:00 +4°C° 0.7 mm 7 mps 732 mmHg 82%
    01:00 +4°C° 0 mm 7 mps 732 mmHg 85%
    02:00 +4°C° 0.2 mm 7 mps 732 mmHg 85%
    03:00 +4°C° 0.2 mm 7 mps 732 mmHg 85%
    04:00 +4°C° 0.2 mm 7 mps 731 mmHg 85%
    05:00 +4°C° 0.2 mm 6 mps 732 mmHg 84%
    06:00 +4°C° 0.2 mm 6 mps 732 mmHg 84%
    07:00 +5°C° 0 mm 4 mps 732 mmHg 84%
    08:00 +6°C° 0 mm 5 mps 732 mmHg 82%
    09:00 +6°C° 0 mm 5 mps 733 mmHg 80%
    10:00 +5°C° 0 mm 6 mps 733 mmHg 78%
    11:00 +6°C° 0 mm 5 mps 733 mmHg 77%
    12:00 +7°C° 0 mm 5 mps 733 mmHg 75%
    13:00 +7°C° 0 mm 5 mps 733 mmHg 74%
    14:00 +6°C° 0 mm 5 mps 733 mmHg 74%
    15:00 +6°C° 0 mm 4 mps 733 mmHg 75%
    16:00 +5°C° 0 mm 4 mps 733 mmHg 76%
    17:00 +5°C° 0 mm 4 mps 733 mmHg 78%
    18:00 +4°C° 0 mm 4 mps 734 mmHg 79%
    19:00 +4°C° 0 mm 4 mps 734 mmHg 81%
    20:00 +4°C° 0 mm 4 mps 734 mmHg 82%
    21:00 +3°C° 0 mm 4 mps 734 mmHg 83%
    22:00 +3°C° 0 mm 4 mps 734 mmHg 85%
    23:00 +3°C° 0 mm 4 mps 735 mmHg 85%

    Tomorrow, 10 December, Tuesday

    Time Temperature Precipitation Wind Pressure Humidity
    00:00 +1°C° 0 mm 4 mps 735 mmHg 85%
    01:00 +1°C° 0 mm 4 mps 736 mmHg 86%
    02:00 +1°C° 0 mm 4 mps 736 mmHg 87%
    03:00 +1°C° 0 mm 5 mps 736 mmHg 88%
    04:00 +1°C° 0 mm 5 mps 737 mmHg 89%
    05:00 +1°C° 0.1 mm 5 mps 738 mmHg 87%
    06:00 +1°C° 0.1 mm 5 mps 739 mmHg 84%
    07:00 +1°C° 0.1 mm 5 mps 740 mmHg 82%
    08:00 +1°C° 0 mm 6 mps 740 mmHg 78%
    09:00 +1°C° 0 mm 6 mps 741 mmHg 75%
    10:00 0°C° 0 mm 7 mps 742 mmHg 71%
    11:00 0°C° 0 mm 7 mps 742 mmHg 69%
    12:00 0°C° 0 mm 7 mps 743 mmHg 67%
    13:00 0°C° 0 mm 7 mps 744 mmHg 64%
    14:00 -1°C° 0 mm 7 mps 744 mmHg 64%
    15:00 -1°C° 0 mm 6 mps 744 mmHg 65%
    16:00 -1°C° 0 mm 5 mps 745 mmHg 65%
    17:00 -1°C° 0 mm 4 mps 745 mmHg 66%
    18:00 -1°C° 0 mm 4 mps 746 mmHg 67%
    19:00 -2°C° 0 mm 4 mps 747 mmHg 68%
    20:00 -1°C° 0 mm 3 mps 747 mmHg 70%
    21:00 -2°C° 0 mm 3 mps 747 mmHg 71%
    22:00 -2°C° 0 mm 2 mps 747 mmHg 73%
    23:00 -2°C° 0 mm 2 mps 747 mmHg 72%

    Day after tomorrow, 11 December, Wednesday

    Time Temperature Precipitation Wind Pressure Humidity
    00:00 -2°C° 0 mm 2 mps 747 mmHg 72%
    01:00 -3°C° 0 mm 2 mps 747 mmHg 72%
    02:00 -1°C° 0 mm 1 mps 747 mmHg 71%
    03:00 -1°C° 0 mm 1 mps 746 mmHg 71%
    04:00 -1°C° 0 mm 1 mps 746 mmHg 70%
    05:00 -1°C° 0 mm 1 mps 746 mmHg 70%
    06:00 -1°C° 0 mm 1 mps 746 mmHg 69%
    07:00 -1°C° 0 mm 1 mps 746 mmHg 69%
    08:00 0°C° 0 mm 1 mps 745 mmHg 66%
    09:00 -2°C° 0 mm 2 mps 745 mmHg 63%
    10:00 -1°C° 0 mm 3 mps 745 mmHg 60%
    11:00 -1°C° 0 mm 3 mps 744 mmHg 59%
    12:00 0°C° 0 mm 3 mps 743 mmHg 58%
    13:00 0°C° 0 mm 3 mps 743 mmHg 57%
    14:00 0°C° 0 mm 3 mps 742 mmHg 61%
    15:00 -1°C° 0 mm 3 mps 741 mmHg 66%
    16:00 -2°C° 0 mm 3 mps 740 mmHg 70%
    17:00 -3°C° 0 mm 4 mps 740 mmHg 72%
    18:00 -3°C° 0 mm 4 mps 740 mmHg 74%
    19:00 -4°C° 0 mm 5 mps 740 mmHg 76%
    20:00 -4°C° 0 mm 5 mps 739 mmHg 77%
    21:00 -4°C° 0 mm 5 mps 739 mmHg 78%
    22:00 -4°C° 0 mm 5 mps 738 mmHg 79%
    23:00 -4°C° 0 mm 5 mps 738 mmHg 79%

    12 December, Thursday

    Time Temperature Precipitation Wind Pressure Humidity
    00:00 -4°C° 0 mm 4 mps 737 mmHg 79%
    01:00 -4°C° 0 mm 4 mps 737 mmHg 78%
    02:00 -4°C° 0 mm 4 mps 737 mmHg 77%
    03:00 -4°C° 0 mm 4 mps 736 mmHg 75%
    04:00 -4°C° 0 mm 4 mps 736 mmHg 74%
    05:00 -4°C° 0 mm 4 mps 736 mmHg 70%
    06:00 -4°C° 0 mm 4 mps 736 mmHg 66%
    07:00 -4°C° 0 mm 4 mps 736 mmHg 62%
    08:00 -5°C° 0 mm 5 mps 736 mmHg 61%
    09:00 -4°C° 0 mm 5 mps 736 mmHg 60%
    10:00 -4°C° 0 mm 5 mps 736 mmHg 59%
    11:00 -2°C° 0 mm 5 mps 736 mmHg 59%
    12:00 -2°C° 0 mm 5 mps 736 mmHg 59%
    13:00 -1°C° 0 mm 4 mps 736 mmHg 59%
    14:00 -2°C° 0 mm 4 mps 736 mmHg 65%
    15:00 -1°C° 0 mm 3 mps 735 mmHg 70%
    16:00 -1°C° 0 mm 3 mps 735 mmHg 76%
    17:00 -1°C° 0 mm 3 mps 735 mmHg 80%
    18:00 -1°C° 0 mm 3 mps 735 mmHg 83%
    19:00 -1°C° 0 mm 3 mps 735 mmHg 86%
    20:00 -2°C° 0 mm 3 mps 735 mmHg 86%
    21:00 -2°C° 0 mm 3 mps 734 mmHg 85%
    22:00 -2°C° 0 mm 3 mps 734 mmHg 84%
    23:00 -3°C° 0 mm 4 mps 733 mmHg 85%

    13 December, Friday

    Time Temperature Precipitation Wind Pressure Humidity
    00:00 -3°C° 0 mm 4 mps 733 mmHg 86%
    01:00 -3°C° 0 mm 4 mps 732 mmHg 87%
    02:00 -3°C° 0 mm 4 mps 731 mmHg 87%
    03:00 -4°C° 0 mm 5 mps 730 mmHg 86%
    04:00 -4°C° 0 mm 5 mps 729 mmHg 86%
    05:00 -4°C° 0 mm 5 mps 728 mmHg 83%
    06:00 -4°C° 0 mm 5 mps 727 mmHg 80%
    07:00 -4°C° 0 mm 5 mps 726 mmHg 78%
    08:00 -3°C° 0 mm 6 mps 725 mmHg 76%
    09:00 -3°C° 0 mm 6 mps 724 mmHg 74%
    10:00 -2°C° 0 mm 6 mps 723 mmHg 73%
    11:00 -1°C° 0 mm 6 mps 723 mmHg 67%
    12:00 -1°C° 0 mm 6 mps 722 mmHg 62%
    13:00 +1°C° 0 mm 6 mps 721 mmHg 56%
    14:00 -1°C° 0 mm 6 mps 721 mmHg 58%
    15:00 0°C° 0 mm 5 mps 721 mmHg 61%
    16:00 0°C° 0 mm 5 mps 721 mmHg 63%
    17:00 -1°C° 0 mm 5 mps 722 mmHg 70%
    18:00 -2°C° 0 mm 6 mps 722 mmHg 77%
    19:00 -2°C° 0 mm 6 mps 722 mmHg 84%
    20:00 -2°C° 0 mm 6 mps 722 mmHg 84%
    21:00 -2°C° 0 mm 6 mps 722 mmHg 85%
    22:00 -2°C° 0 mm 6 mps 723 mmHg 85%
    23:00 -2°C° 0 mm 6 mps 723 mmHg 86%

    14 December, Saturday

    Time Temperature Precipitation Wind Pressure Humidity
    00:00 -2°C° 0 mm 6 mps 723 mmHg 87%
    01:00 -2°C° 0 mm 6 mps 723 mmHg 87%
    02:00 -2°C° 0 mm 6 mps 723 mmHg 87%
    03:00 -2°C° 0 mm 6 mps 723 mmHg 86%
    04:00 -1°C° 0 mm 5 mps 723 mmHg 86%
    05:00 -1°C° 0 mm 5 mps 724 mmHg 88%
    06:00 -1°C° 0 mm 5 mps 724 mmHg 90%
    07:00 -2°C° 0 mm 6 mps 724 mmHg 93%
    08:00 -2°C° 0.1 mm 6 mps 724 mmHg 93%
    09:00 -2°C° 0.1 mm 6 mps 725 mmHg 94%
    10:00 -2°C° 0.1 mm 6 mps 725 mmHg 95%
    11:00 -1°C° 0.3 mm 5 mps 725 mmHg 94%
    12:00 -1°C° 0.3 mm 5 mps 725 mmHg 93%
    13:00 0°C° 0.3 mm 5 mps 725 mmHg 92%
    14:00 -1°C° 0.2 mm 5 mps 726 mmHg 93%
    15:00 -1°C° 0.2 mm 5 mps 726 mmHg 95%
    16:00 -1°C° 0.2 mm 5 mps 727 mmHg 97%
    17:00 -1°C° 0.4 mm 5 mps 727 mmHg 96%
    18:00 -2°C° 0.4 mm 6 mps 728 mmHg 96%
    19:00 -2°C° 0.4 mm 6 mps 729 mmHg 95%
    20:00 -1°C° 0 mm 5 mps 729 mmHg 92%
    21:00 -1°C° 0 mm 5 mps 730 mmHg 89%
    22:00 -2°C° 0 mm 4 mps 730 mmHg 87%
    23:00 -2°C° 0 mm 5 mps 731 mmHg 85%
    Show more